Location: Del Amo
(33.8464°N, 118.2104°W)
Time: 03:56:39
(UTC+00:00)

Courier 1B - Pass Details

Date: 18 September 2024
Orbit: 962 x 1208 km, 28.3° (Epoch: 08 October)

Event Time Altitude Azimuth Distance (km) Brightness Sun altitude
Rises 03:51:51 0° 259° (WSW) 4,082 11.7 -24.5°
Reaches altitude 10° 03:57:58 10° 223° (SW) 3,136 10.4 -25.6°
Maximum altitude 03:59:21 11° 213° (SSW) 3,096 10.2 -25.9°
Drops below altitude 10° 04:00:45 10° 202° (SSW) 3,135 10.1 -26.2°
Enters shadow 04:03:44 - 182° (S) 3,460 10.2 -26.8°
